Stavanger/Sola Airport

Airport
ICAO code: 
ENZV
IATA Code: 
SVG
Summary
ICAO Region: 
EUR
Territory: 
Location: 
Sola,
Serving: 
Stavanger
Elevation: 
29 ft
Coordinates: 
Aerial View: 
58° 52' 42" N, 5° 38' 7.903" E
Metar
Observation
ENZV 240620Z 22009KT 9999 BKN011 OVC015 07/05 Q1024 NOSIG
Station
Stavanger / Sola
Date/Time
2022-01-24 06:20:00
Wind direction
220°
Wind speed
09 kts
Lowest cloud amount
broken clouds
Temperature
7°C
Dew point
5°C
Humidity
87%
QNH
1024 hPa
Weather condition
n/a

Description

International airport serving Stavanger and southwest Norway, located in Sola, Norway, 6 nm southwest of Stavanger.

Climatology

Temperate Marine climate/Oceanic climate (Köppen climate classification Cfb). Moderately cool summer and comparatively warm winter with a temperature range of only 14°C. Prevailing south-westerly winds from the Atlantic Ocean.

Runways

Designator Length Width Surface Rops
11/29 2449 45 ASP Yes/Yes
18/36 2856 60 ASP Yes/Yes
Airport map: 
Aerial View: 

SKYbrary Partners:

Safety knowledge contributed by: